TimeEDT,TemperatureF,Dew PointF,Humidity,Sea Level PressureIn,VisibilityMPH,Wind Direction,Wind SpeedMPH,Gust SpeedMPH,PrecipitationIn,Events,Conditions,WindDirDegrees,DateUTC
12:15 AM,64.0,58.8,83,30.06,10.0,Calm,Calm,-,N/A,,Clear,0,2013-08-03 04:15:00
12:35 AM,64.2,58.3,81,30.05,10.0,Calm,Calm,-,N/A,,Clear,0,2013-08-03 04:35:00
12:55 AM,65.3,57.6,76,30.04,10.0,SSE,4.6,-,N/A,,Clear,160,2013-08-03 04:55:00
1:15 AM,64.2,57.6,79,30.04,10.0,Calm,Calm,-,N/A,,Clear,0,2013-08-03 05:15:00
1:35 AM,63.3,57.6,81,30.05,10.0,Calm,Calm,-,N/A,,Clear,0,2013-08-03 05:35:00
1:55 AM,61.9,57.6,86,30.04,10.0,Calm,Calm,-,N/A,,Clear,0,2013-08-03 05:55:00
2:15 AM,63.7,57.7,81,30.03,10.0,Calm,Calm,-,N/A,,Clear,0,2013-08-03 06:15:00
2:35 AM,61.3,57.4,87,30.04,10.0,West,3.5,-,N/A,,Clear,260,2013-08-03 06:35:00
2:55 AM,63.1,58.1,84,30.03,10.0,Calm,Calm,-,N/A,,Clear,0,2013-08-03 06:55:00
3:15 AM,62.2,58.1,86,30.03,10.0,Calm,Calm,-,N/A,,Clear,0,2013-08-03 07:15:00
3:35 AM,61.7,57.9,87,30.03,10.0,Calm,Calm,-,N/A,,Clear,0,2013-08-03 07:35:00
3:55 AM,61.2,57.6,88,30.03,10.0,Calm,Calm,-,N/A,,Clear,0,2013-08-03 07:55:00
4:15 AM,61.5,57.6,87,30.04,10.0,Calm,Calm,-,N/A,,Clear,0,2013-08-03 08:15:00
4:35 AM,61.7,57.7,87,30.03,10.0,Calm,Calm,-,N/A,,Clear,0,2013-08-03 08:35:00
4:55 AM,61.7,58.1,88,30.03,10.0,Calm,Calm,-,N/A,,Clear,0,2013-08-03 08:55:00
5:15 AM,61.5,57.7,87,30.03,10.0,Calm,Calm,-,N/A,,Clear,0,2013-08-03 09:15:00
5:35 AM,61.3,57.9,89,30.03,10.0,Calm,Calm,-,N/A,,Clear,0,2013-08-03 09:35:00
5:55 AM,62.1,57.7,86,30.04,10.0,Calm,Calm,-,N/A,,Clear,0,2013-08-03 09:55:00
6:15 AM,61.7,57.7,87,30.04,10.0,Calm,Calm,-,N/A,,Clear,0,2013-08-03 10:15:00
6:35 AM,62.4,57.7,85,30.04,10.0,Calm,Calm,-,N/A,,Clear,0,2013-08-03 10:35:00
6:55 AM,62.4,58.3,86,30.04,10.0,Calm,Calm,-,N/A,,Clear,0,2013-08-03 10:55:00
7:15 AM,61.7,58.5,89,30.04,10.0,Calm,Calm,-,N/A,,Clear,0,2013-08-03 11:15:00
7:35 AM,63.0,59.0,87,30.03,10.0,Calm,Calm,-,N/A,,Clear,0,2013-08-03 11:35:00
7:55 AM,64.4,59.0,83,30.03,10.0,Calm,Calm,-,N/A,,Mostly Cloudy,0,2013-08-03 11:55:00
8:15 AM,64.4,59.4,84,30.03,10.0,Calm,Calm,-,N/A,,Mostly Cloudy,0,2013-08-03 12:15:00
8:35 AM,64.6,60.3,86,30.04,10.0,Calm,Calm,-,N/A,,Mostly Cloudy,0,2013-08-03 12:35:00
8:55 AM,65.5,59.2,80,30.04,10.0,Calm,Calm,-,N/A,,Overcast,0,2013-08-03 12:55:00
9:15 AM,65.5,60.3,83,30.05,10.0,Calm,Calm,-,N/A,Rain,Light Rain,0,2013-08-03 13:15:00
9:35 AM,66.0,61.0,84,30.05,10.0,Calm,Calm,-,N/A,,Mostly Cloudy,0,2013-08-03 13:35:00
9:55 AM,66.4,61.2,83,30.05,10.0,Calm,Calm,-,N/A,,Mostly Cloudy,0,2013-08-03 13:55:00
10:15 AM,67.3,61.0,80,30.05,10.0,Calm,Calm,-,N/A,Rain,Light Rain,0,2013-08-03 14:15:00
10:35 AM,68.7,60.6,75,30.05,10.0,East,3.5,-,N/A,,Scattered Clouds,100,2013-08-03 14:35:00
10:55 AM,70.3,59.9,69,30.04,10.0,Calm,Calm,-,N/A,,Clear,0,2013-08-03 14:55:00
11:15 AM,71.6,59.9,66,30.04,10.0,Calm,Calm,-,N/A,,Clear,0,2013-08-03 15:15:00
11:35 AM,72.1,59.9,65,30.04,10.0,Calm,Calm,-,N/A,,Clear,0,2013-08-03 15:35:00
11:55 AM,72.9,60.8,66,30.03,10.0,Calm,Calm,-,N/A,,Scattered Clouds,0,2013-08-03 15:55:00
12:15 PM,73.8,60.8,64,30.03,10.0,Calm,Calm,-,N/A,,Scattered Clouds,0,2013-08-03 16:15:00
12:35 PM,75.4,60.6,60,30.03,10.0,WSW,4.6,-,N/A,,Mostly Cloudy,250,2013-08-03 16:35:00
12:55 PM,75.7,60.8,60,30.03,10.0,South,3.5,-,N/A,,Overcast,170,2013-08-03 16:55:00
1:15 PM,76.6,60.1,56,30.03,10.0,SW,3.5,-,N/A,,Overcast,220,2013-08-03 17:15:00
1:35 PM,77.4,58.3,52,30.03,10.0,South,3.5,-,N/A,,Mostly Cloudy,190,2013-08-03 17:35:00
1:55 PM,78.6,57.7,49,30.02,10.0,Calm,Calm,-,N/A,,Scattered Clouds,0,2013-08-03 17:55:00
2:15 PM,78.1,56.7,48,30.01,10.0,ESE,3.5,-,N/A,,Scattered Clouds,110,2013-08-03 18:15:00
2:35 PM,77.9,57.4,49,30.00,10.0,ESE,3.5,-,N/A,,Clear,110,2013-08-03 18:35:00
2:55 PM,80.4,57.7,46,30.00,10.0,ESE,5.8,-,N/A,,Clear,110,2013-08-03 18:55:00
3:15 PM,79.7,57.7,47,29.99,10.0,East,3.5,-,N/A,,Scattered Clouds,100,2013-08-03 19:15:00
3:35 PM,78.4,58.6,50,29.99,10.0,East,3.5,-,N/A,,Overcast,90,2013-08-03 19:35:00
3:55 PM,78.8,58.5,50,29.98,10.0,East,5.8,-,N/A,,Overcast,90,2013-08-03 19:55:00
4:15 PM,78.8,59.0,51,29.98,10.0,East,3.5,-,N/A,,Overcast,80,2013-08-03 20:15:00
4:35 PM,78.8,58.8,50,29.98,10.0,Calm,Calm,-,N/A,,Overcast,0,2013-08-03 20:35:00
4:55 PM,78.8,61.3,55,29.99,10.0,SW,3.5,-,N/A,,Overcast,230,2013-08-03 20:55:00
5:15 PM,76.8,63.0,62,29.99,10.0,NW,6.9,-,N/A,Rain,Light Rain,310,2013-08-03 21:15:00
5:35 PM,73.4,63.7,71,30.00,10.0,NNW,4.6,-,0.01,,Overcast,340,2013-08-03 21:35:00
5:55 PM,73.4,61.9,67,30.01,10.0,NNW,3.5,-,0.01,Rain,Light Rain,330,2013-08-03 21:55:00
6:15 PM,73.4,61.0,65,30.00,10.0,NW,3.5,-,N/A,,Overcast,320,2013-08-03 22:15:00
6:35 PM,72.5,61.3,68,30.00,10.0,Calm,Calm,-,N/A,,Overcast,0,2013-08-03 22:35:00
6:55 PM,72.3,62.4,71,29.99,10.0,Calm,Calm,-,N/A,,Overcast,0,2013-08-03 22:55:00
7:15 PM,73.0,60.3,64,29.99,10.0,Calm,Calm,-,N/A,,Overcast,0,2013-08-03 23:15:00
7:35 PM,72.5,63.0,72,29.99,10.0,ESE,3.5,-,N/A,,Overcast,110,2013-08-03 23:35:00
7:55 PM,70.9,62.8,75,30.00,10.0,East,3.5,-,N/A,,Scattered Clouds,90,2013-08-03 23:55:00
8:15 PM,70.9,62.6,75,30.00,10.0,Calm,Calm,-,N/A,,Mostly Cloudy,0,2013-08-04 00:15:00
8:35 PM,70.9,62.1,74,30.00,10.0,Calm,Calm,-,N/A,,Overcast,0,2013-08-04 00:35:00
8:55 PM,70.0,63.0,78,30.00,10.0,Calm,Calm,-,N/A,,Overcast,0,2013-08-04 00:55:00
9:15 PM,69.8,63.1,79,30.01,10.0,North,3.5,-,N/A,,Overcast,10,2013-08-04 01:15:00
9:35 PM,69.4,63.1,80,30.02,10.0,Calm,Calm,-,N/A,,Overcast,0,2013-08-04 01:35:00
9:55 PM,69.8,62.2,77,30.02,10.0,Calm,Calm,-,N/A,,Overcast,0,2013-08-04 01:55:00
10:15 PM,68.5,63.5,84,30.02,10.0,Calm,Calm,-,N/A,,Overcast,0,2013-08-04 02:15:00
10:35 PM,68.4,62.8,82,30.02,10.0,Calm,Calm,-,N/A,,Mostly Cloudy,0,2013-08-04 02:35:00
10:55 PM,67.8,63.3,85,30.03,10.0,Calm,Calm,-,N/A,,Mostly Cloudy,0,2013-08-04 02:55:00
11:15 PM,68.0,63.0,84,30.02,10.0,Calm,Calm,-,N/A,,Overcast,0,2013-08-04 03:15:00
11:35 PM,66.4,62.4,87,30.02,10.0,NE,4.6,-,N/A,,Scattered Clouds,40,2013-08-04 03:35:00
11:55 PM,65.8,62.1,88,30.02,10.0,Calm,Calm,-,N/A,,Clear,0,2013-08-04 03:55:00